Le Mars, IA

12:06 AM CST on November 12, 2019 (GMT -0600)
Le Mars Municipal

Weather History for KLRJ - July, 2019

Change the Weather History Date:

Friday, July 26, 2019

  Actual Average Record
Temperature  
Mean Temperature 76 °F -  
Max Temperature 87 °F 85 °F 97 °F (1975)
Min Temperature 64 °F 62 °F 50 °F (1971)
Cooling Degree Days 10    
Growing Degree Days 26 (Base 50)    
Moisture  
Dew Point 67 °F    
Average Humidity 74    
Maximum Humidity 94    
Minimum Humidity 55    
Precipitation  
Precipitation 0.00 in - - ()
Sea Level Pressure  
Sea Level Pressure 29.98 in    
Wind  
Wind Speed 10 mph (South)    
Max Wind Speed 14 mph    
Max Gust Speed 18 mph    
Visibility 10 miles    
Events      
Averages and records for this station are not official NWS values.
T = Trace of Precipitation, MM = Missing Value Source: NWS Daily Summary

Daily Weather History Graph

Daily Weather History Graph

Search for Another Location

Airport or City:

Astronomy

Jul. 26, 2019 Rise Set
Actual Time 6:09 AM CDT 8:52 PM CDT
Civil Twilight 5:37 AM CDT 9:24 PM CDT
Nautical Twilight 4:55 AM CDT 10:05 PM CDT
Astronomical Twilight 4:08 AM CDT 10:52 PM CDT
Moon 1:26 AM CDT (7/26) 3:36 PM CDT (7/26)
Length of Visible Light 15h 47m
Length of Day
14h 42m
Waning Crescent, 34% of the Moon is Illuminated
Jul 26
Waning Crescent
Jul 31
New
Aug 7
First Quarter
Aug 15
Full
Aug 23
Last Quarter

Hourly Weather History & Observations

Time (CDT) Temp. Heat Index Dew Point Humidity Pressure Visibility Wind Dir Wind Speed Gust Speed Precip Events Conditions
12:15 AM 68.0 °F - 64.4 °F 88% 30.01 in 10.0 mi South 11.5 mph - N/A   Clear
12:35 AM 68.0 °F - 64.4 °F 88% 30.00 in 10.0 mi South 10.4 mph - N/A   Clear
12:55 AM 68.0 °F - 64.4 °F 88% 30.00 in 10.0 mi South 10.4 mph - N/A   Clear
1:15 AM 66.2 °F - 64.4 °F 94% 30.00 in 10.0 mi South 10.4 mph - N/A   Clear
1:35 AM 66.2 °F - 62.6 °F 88% 29.99 in 10.0 mi South 10.4 mph - N/A   Clear
2:15 AM 66.2 °F - 62.6 °F 88% 29.98 in 10.0 mi South 11.5 mph - N/A   Clear
2:35 AM 66.2 °F - 62.6 °F 88% 29.98 in 10.0 mi South 9.2 mph - N/A   Clear
2:55 AM 66.2 °F - 62.6 °F 88% 29.97 in 10.0 mi South 8.1 mph - N/A   Clear
3:15 AM 66.2 °F - 62.6 °F 88% 29.97 in 10.0 mi South 8.1 mph 13.8 mph N/A   Clear
3:35 AM 66.2 °F - 62.6 °F 88% 29.97 in 10.0 mi South 5.8 mph - N/A   Clear
3:55 AM 66.2 °F - 62.6 °F 88% 29.96 in 10.0 mi South 8.1 mph - N/A   Clear
4:15 AM 66.2 °F - 62.6 °F 88% 29.96 in 10.0 mi South 10.4 mph - N/A   Clear
4:35 AM 66.2 °F - 62.6 °F 88% 29.95 in 10.0 mi South 10.4 mph - N/A   Clear
4:55 AM 66.2 °F - 62.6 °F 88% 29.95 in 10.0 mi South 9.2 mph - N/A   Clear
5:15 AM 66.2 °F - 62.6 °F 88% 29.94 in 10.0 mi South 9.2 mph - N/A   Clear
5:35 AM 66.2 °F - 62.6 °F 88% 29.95 in 10.0 mi South 6.9 mph - N/A   Clear
5:55 AM 64.4 °F - 62.6 °F 94% 29.96 in 10.0 mi South 5.8 mph - N/A   Clear
6:15 AM 64.4 °F - 62.6 °F 94% 29.96 in 10.0 mi South 5.8 mph - N/A   Clear
6:55 AM 66.2 °F - 62.6 °F 88% 29.96 in 10.0 mi South 6.9 mph - N/A   Clear
7:15 AM 66.2 °F - 62.6 °F 88% 29.97 in 10.0 mi South 8.1 mph - N/A   Clear
7:35 AM 66.2 °F - 62.6 °F 88% 29.98 in 10.0 mi South 8.1 mph - N/A   Clear
7:55 AM 68.0 °F - 64.4 °F 88% 29.98 in 10.0 mi South 9.2 mph - N/A   Clear
8:15 AM 69.8 °F - 64.4 °F 83% 29.98 in 10.0 mi South 11.5 mph - N/A   Clear
8:35 AM 69.8 °F - 62.6 °F 78% 29.99 in 10.0 mi South 11.5 mph - N/A   Clear
8:55 AM 71.6 °F - 64.4 °F 78% 29.98 in 10.0 mi South 11.5 mph - N/A   Clear
9:15 AM 71.6 °F - 64.4 °F 78% 29.98 in 10.0 mi SSW 11.5 mph - N/A   Clear
9:35 AM 75.2 °F - 64.4 °F 69% 29.98 in 10.0 mi South 13.8 mph - N/A   Clear
9:55 AM 75.2 °F - 64.4 °F 69% 29.99 in 10.0 mi SSW 13.8 mph - N/A   Clear
10:15 AM 77.0 °F - 64.4 °F 65% 30.00 in 10.0 mi South 13.8 mph - N/A   Clear
10:35 AM 77.0 °F - 64.4 °F 65% 30.00 in 10.0 mi SW 12.7 mph - N/A   Clear
10:55 AM 77.0 °F - 64.4 °F 65% 29.99 in 10.0 mi South 9.2 mph - N/A   Clear
11:15 AM 78.8 °F - 64.4 °F 61% 29.99 in 10.0 mi South 10.4 mph - N/A   Clear
11:35 AM 80.6 °F 82.7 °F 66.2 °F 61% 29.99 in 10.0 mi South 12.7 mph - N/A   Clear
11:55 AM 80.6 °F 82.7 °F 66.2 °F 61% 30.00 in 10.0 mi South 10.4 mph - N/A   Clear
12:15 PM 82.4 °F 84.6 °F 66.2 °F 58% 30.01 in 10.0 mi South 8.1 mph - N/A   Clear
12:35 PM 82.4 °F 84.6 °F 66.2 °F 58% 30.00 in 10.0 mi SSW 9.2 mph - N/A   Clear
12:55 PM 84.2 °F 86.6 °F 66.2 °F 55% 30.00 in 10.0 mi South 9.2 mph - N/A   Clear
1:15 PM 84.2 °F 87.3 °F 68.0 °F 58% 29.99 in 10.0 mi South 12.7 mph - N/A   Clear
1:35 PM 86.0 °F 89.4 °F 68.0 °F 55% 29.99 in 10.0 mi South 12.7 mph - N/A   Clear
1:55 PM 86.0 °F 89.4 °F 68.0 °F 55% 29.99 in 10.0 mi South 10.4 mph - N/A   Clear
2:15 PM 86.0 °F 89.4 °F 68.0 °F 55% 29.99 in 10.0 mi South 10.4 mph 16.1 mph N/A   Clear
2:35 PM 86.0 °F 90.4 °F 69.8 °F 58% 29.99 in 10.0 mi South 10.4 mph - N/A   Clear
2:55 PM 86.0 °F 90.4 °F 69.8 °F 58% 30.00 in 10.0 mi SSW 12.7 mph - N/A   Clear
3:15 PM 87.8 °F 92.6 °F 69.8 °F 55% 30.00 in - SW 8.1 mph 17.3 mph N/A   Clear
3:35 PM 87.8 °F 92.6 °F 69.8 °F 55% 29.99 in 7.0 mi SSW 8.1 mph 16.1 mph N/A   Clear
3:55 PM 87.8 °F 92.6 °F 69.8 °F 55% 29.99 in 10.0 mi SW 10.4 mph 17.3 mph N/A   Clear
4:15 PM 87.8 °F 93.8 °F 71.6 °F 58% 29.98 in 10.0 mi South 12.7 mph - N/A   Clear
4:35 PM 87.8 °F 92.6 °F 69.8 °F 55% 29.98 in 10.0 mi SSW 12.7 mph - N/A   Clear
4:55 PM 87.8 °F 93.8 °F 71.6 °F 58% 29.98 in 9.0 mi SW 11.5 mph 18.4 mph N/A   Clear
5:15 PM 87.8 °F 93.8 °F 71.6 °F 58% 29.98 in 10.0 mi SSW 9.2 mph 16.1 mph N/A   Clear
5:35 PM 87.8 °F 95.6 °F 73.4 °F 62% 29.96 in 10.0 mi South 11.5 mph - N/A   Clear
5:55 PM 87.8 °F 93.8 °F 71.6 °F 58% 29.97 in 10.0 mi SSW 11.5 mph - N/A   Clear
6:15 PM 87.8 °F 93.8 °F 71.6 °F 58% 29.97 in 10.0 mi South 11.5 mph - N/A   Clear
6:35 PM 87.8 °F 95.6 °F 73.4 °F 62% 29.97 in 10.0 mi South 11.5 mph - N/A   Clear
6:55 PM 87.8 °F 95.6 °F 73.4 °F 62% 29.97 in 10.0 mi South 10.4 mph - N/A   Clear
7:15 PM 86.0 °F 93.4 °F 73.4 °F 66% 29.97 in 10.0 mi South 11.5 mph - N/A   Clear
7:35 PM 84.2 °F 89.6 °F 71.6 °F 66% 29.97 in 10.0 mi South 11.5 mph - N/A   Clear
7:55 PM 84.2 °F 89.6 °F 71.6 °F 66% 29.97 in 10.0 mi South 10.4 mph - N/A   Clear
8:15 PM 82.4 °F 87.2 °F 71.6 °F 70% 29.97 in 10.0 mi South 9.2 mph - N/A   Clear
8:35 PM 80.6 °F 84.6 °F 71.6 °F 74% 29.98 in 10.0 mi SSW 9.2 mph - N/A   Clear
8:55 PM 78.8 °F - 71.6 °F 78% 29.98 in 10.0 mi South 8.1 mph - N/A   Clear
9:15 PM 78.8 °F - 71.6 °F 78% 29.99 in 10.0 mi South 5.8 mph - N/A   Clear
9:35 PM 77.0 °F - 71.6 °F 83% 30.00 in 10.0 mi South 8.1 mph - N/A   Clear
9:55 PM 75.2 °F - 71.6 °F 89% 30.01 in 10.0 mi SSW 9.2 mph - N/A   Clear
10:15 PM 75.2 °F - 71.6 °F 89% 30.01 in 10.0 mi SSW 6.9 mph - N/A   Clear
10:35 PM 75.2 °F - 71.6 °F 89% 30.02 in 10.0 mi South 4.6 mph - N/A   Clear
10:55 PM 75.2 °F - 71.6 °F 89% 30.01 in 10.0 mi South 6.9 mph - N/A   Clear
11:15 PM 75.2 °F - 71.6 °F 89% 30.01 in 10.0 mi South 6.9 mph - N/A   Clear
11:35 PM 75.2 °F - 71.6 °F 89% 30.01 in 10.0 mi South 6.9 mph - N/A   Clear
11:55 PM 75.2 °F - 71.6 °F 89% 30.02 in 10.0 mi South 8.1 mph - N/A   Mostly Cloudy